User: anonymous   Login
Location: Unspecified
(0.0000°N, 0.0000°E)
Time: 00:36:48
(UTC+00:00)
Language:

DANDE - Orbit

View from above orbital plane
View from above orbital plane
View from above satellite
View from above satellite

Ground track
Ground track

The orbit data is extracted from the following two-line orbital elements,

1 39267U 13055C   17206.53844919 +.00004470 +00000-0 +13242-3 0  9990
2 39267 081.0134 347.0717 0712934 160.9126 202.0308 14.17270902196460
Epoch (UTC): 25 July 2017 12:55:22
Eccentricity: 0.0712934
inclination: 81.0134°
perigee height: 320 km
apogee height: 1349 km
right ascension of ascending node: 347.0717°
argument of perigee: 160.9126°
revolutions per day: 14.17270902
mean anomaly at epoch: 202.0308°
orbit number at epoch: 19646

The dashed part of the orbit path shows where the satellite is in the earth's shadow,  

DLR